DECAYED

STARLINK-2008, 47603 (Decayed)

Orbit data source: Space-Track

STARLINK-2008, 47603 was a payload satellite owned by SpaceX/Seattle (US) in LEO that was launched on Thu, 04 Feb 2021 UTC via an FALCON 9 launch vehicle from the Air Force Eastern Test Range (AFETR). Payload-class satellites include a variety of spacecraft equipped with specific instruments for various scientific and technological missions. These include communications satellites like Starlink; space stations such as the ISS; scientific satellites like the Hubble; Earth observation satellites from companies like Planet Labs, Umbra, and HawkEye 360; GPS; miniature CubeSats for education and research; and military/defense satellites.

Not visible in the next 10 days
Identifier
47603, 2021-009BH
Orbit
Decayed
Country
Flag of USUS
Related business
Manufacturer
SpaceX/Seattle
Mission
Decayed Commercial Communications
Bus & Motor
STARLINK, Unknown motor
Mass
260 kg wet, ~248 kg dry
Launch date (UTC)
2021-02-04 (5 years ago)
Launch vehicle
FALCON 9
Launch site
Air Force Eastern Test Range (AFETR)
Object type
Payload
Rocket body
Debris
Shape & HBR
Box + 1 Pan, 10.1 m
Radar Cross Section
13.562 m², Large (>1 m²)

Expand to show TLE details & history
Last TLE update: 1 year ago

TLE from 1 year ago
0 STARLINK-2008
1 47603U 21009BH  25060.87619516  .13937073  12476-4  78070-3 0  9990
2 47603  53.0266 229.2761 0007339 297.9854 217.2229 16.41987060225566
Epoch: 2025-03-01T21:01Z
TLE epoch observation values (Epoch: 2025-03-01T21:01:43.261Z)
Latitude
19.65423°
Longitude
-81.57565°
Altitude
164.797 km
Speed
7.808 km/s
True Right ascension
02h 15m 05s
True Declination
19° 32' 09"
Sunlit
Object was in daylight at epoch
Visualization orbit readout
Latitude
Unknown
Longitude
Unknown
Altitude
Unknown
Speed
Unknown
Apparent Right ascension
Unknown
Apparent Declination
Unknown
Sunlit
N/A
Visualization observer readout
Local Sidereal Time
21:33:04
Azimuth
Unknown
Elevation
Unknown
Doppler factor
Unknown
Orbital elements
Apogee altitude
165.612 km
Perigee altitude
156.014 km
Semi-major axis
6,538.95 km
Eccentricity
0.00073
Inclination
53.0266°
RAAN
229.2761°
Arg. of periapsis
297.9854°
True anomaly
217.17206°
Mean anomaly
217.2229°
Eccentric anomaly
217.19748°
Mean motion
4.1047 °/min
Orbital period
87.7 mins
BSTAR
0.0007807
Loading maneuver chart data...
Computing Atmospheric mass density...

Documentation

Showing up to 5 results
|